Theta_e
315 317 319 319 318 319 320 320 320 320 318 316 318 319 319 313 312 313 311 309 307 305 302 307 313 315 318 318 318 320 322 324 324 323 322 321 319 318 317 316 315 314 312 310
315 317 318 319 318 318 319 319 319 320 318 314 317 318 319 317 313 312 311 309 307 303 302 304 312 315 317 318 319 320 321 321 320 319 318 318 317 316 313 308 306 304 303 302
319 319 317 318 316 317 317 318 319 319 318 315 316 318 319 318 312 309 308 307 305 303 302 302 306 314 315 316 317 317 317 317 318 318 317 316 309 305 302 301 300 299 298 297
317 318 315 316 316 315 318 318 316 317 317 319 318 322 322 320 311 308 306 305 304 302 301 300 301 307 312 313 314 315 315 315 313 309 305 303 301 299 296 296 295 295 294 293
317 314 315 316 316 315 317 315 315 316 317 319 320 320 320 317 313 311 307 304 303 301 299 299 298 303 307 309 310 310 310 307 304 302 301 300 298 296 295 294 294 293 292 292
315 312 314 315 313 314 313 314 314 314 317 322 320 321 322 319 316 313 307 304 302 300 298 296 296 299 301 301 301 301 300 299 298 297 296 296 296 294 293 292 292 291 290 290
316 315 313 313 314 312 314 316 321 323 320 322 317 322 322 318 312 312 307 304 301 299 296 294 295 296 297 297 296 296 296 295 295 295 295 294 294 293 292 291 290 290 290 289
322 322 316 313 317 318 315 317 323 328 325 323 312 318 320 309 309 309 306 303 301 298 296 294 293 294 294 295 294 294 295 295 294 294 294 293 292 291 291 290 290 289 288 288
322 323 315 315 315 317 316 318 318 318 311 318 319 316 311 307 307 307 305 302 300 297 295 293 292 293 293 293 293 293 294 293 293 292 292 291 291 291 290 289 288 288 288 288
321 323 314 313 311 313 316 315 316 318 324 325 323 321 320 310 308 306 305 302 300 297 295 293 292 292 293 293 293 293 293 293 292 292 291 290 290 289 288 288 288 288 288 288
318 319 314 310 313 316 313 315 316 318 319 324 324 321 316 316 310 307 305 303 300 297 295 293 292 292 292 292 292 292 291 291 291 290 290 289 289 288 288 288 288 288 288 287
317 318 323 315 312 312 315 316 316 319 319 317 319 321 309 311 311 307 305 303 300 298 295 294 293 292 291 291 291 291 290 290 290 290 289 289 288 288 288 288 288 288 287 287
316 314 322 319 313 309 311 313 315 315 318 321 322 321 307 307 309 308 306 303 301 298 296 294 293 292 291 291 290 290 290 290 289 289 289 288 288 288 288 288 288 287 287 286
314 314 320 325 320 315 313 313 312 315 318 319 319 319 309 309 308 307 306 304 302 299 297 295 293 292 291 290 290 290 289 289 289 289 289 288 288 288 288 288 288 287 286 286
313 313 314 317 316 311 314 315 313 313 315 318 318 317 316 311 309 307 306 304 302 299 297 296 294 292 291 290 290 290 289 289 289 289 288 288 288 288 288 288 287 287 286 284
309 314 314 316 316 313 311 311 314 313 313 314 315 317 311 312 309 308 306 304 303 301 299 297 295 293 291 290 290 290 290 290 290 289 288 288 288 288 288 288 287 287 285 283
308 310 312 317 312 308 311 311 312 313 312 313 314 314 308 307 308 308 307 305 303 302 300 297 296 294 292 290 290 290 291 290 290 289 289 288 288 287 287 287 287 286 283 283
306 309 310 314 307 314 310 300 311 312 312 311 310 308 308 307 307 307 307 306 304 302 300 298 296 294 292 291 291 292 291 290 290 289 289 288 287 287 287 287 287 285 283 282
300 308 307 311 311 312 309 303 306 310 312 310 309 309 306 302 303 304 305 304 304 304 302 299 297 294 291 291 293 292 292 291 290 289 289 288 287 287 287 287 287 283 282 282
299 302 310 306 312 313 313 298 296 304 309 307 306 308 304 297 307 308 303 303 302 302 300 298 296 294 292 295 295 297 292 291 290 290 288 287 287 287 287 287 286 282 282 282
303 304 309 308 311 310 306 295 294 308 312 298 304 304 297 302 305 301 300 300 301 301 300 298 297 295 294 296 299 295 292 291 291 289 288 287 287 287 287 287 283 282 282 282
306 307 306 308 309 308 294 292 299 300 294 295 299 301 301 300 299 298 298 298 298 298 297 297 297 296 296 297 295 293 292 291 290 288 288 288 288 287 287 286 282 282 282 282
304 305 307 307 307 294 293 295 295 294 295 295 296 297 297 297 297 296 295 295 295 295 295 294 295 295 295 294 292 291 290 289 289 288 288 288 287 287 286 284 282 281 281 281
295 293 299 301 296 294 293 293 294 295 295 295 296 296 295 296 295 293 293 293 293 293 292 292 292 292 292 291 290 289 289 289 289 288 288 287 287 286 286 283 281 281 281 281
295 293 295 296 292 292 293 294 295 295 294 294 294 294 294 295 294 293 292 292 291 291 291 291 291 291 291 290 290 289 289 289 288 288 287 286 286 286 285 282 280 280 280 280
292 294 295 299 295 297 297 298 297 294 295 294 293 293 293 294 293 292 292 292 291 291 291 291 290 290 290 290 289 289 289 288 288 287 287 286 285 285 284 282 280 280 280 279
Wind_Speed
12 10 15 20 18 19 13 13 15 11 3 6 14 16 14 17 15 17 16 13 11 8 6 7 8 9 11 13 15 19 23 26 26 25 23 19 17 15 12 11 8 7 7 7
5 17 19 15 11 16 17 16 16 14 6 5 15 19 17 15 20 20 17 15 13 10 9 9 12 13 15 17 21 23 26 27 26 24 21 17 14 12 15 17 17 16 14 13
19 8 9 16 11 12 16 18 15 17 4 11 14 22 23 21 14 11 13 14 13 14 13 12 14 17 18 20 23 25 25 23 18 15 15 16 21 23 21 19 16 14 11 9
18 22 9 12 15 13 17 16 16 15 8 10 3 12 10 12 14 15 17 17 16 15 14 14 16 19 21 22 22 22 21 20 21 22 25 25 24 23 20 17 15 13 11 11
7 8 14 16 16 15 10 2 8 11 13 16 19 9 7 4 13 19 21 20 19 18 17 17 17 20 22 23 23 24 25 26 26 24 22 21 20 18 16 14 11 11 11 11
16 4 9 9 2 12 10 7 3 3 7 12 16 16 13 11 11 14 21 24 24 22 19 18 19 23 25 26 27 28 28 27 24 22 20 17 16 15 14 13 10 9 9 9
18 18 6 6 7 3 13 8 4 5 6 9 2 13 16 6 5 11 23 28 28 27 25 23 25 26 28 28 28 27 25 25 22 20 18 16 15 14 12 10 8 6 7 9
15 10 24 17 24 14 20 18 8 6 7 5 1 9 6 5 6 8 23 28 28 27 25 25 27 29 30 30 29 27 25 23 20 18 17 15 14 11 9 7 6 7 10 13
11 13 4 10 16 21 12 16 9 2 1 4 7 11 3 6 7 14 25 29 30 29 28 27 27 28 29 28 26 25 23 22 20 18 16 14 11 8 7 6 6 8 9 10
6 9 4 6 4 11 11 11 6 4 6 7 8 12 9 10 14 15 22 30 32 31 30 30 30 30 30 29 27 25 22 21 20 17 13 11 9 7 6 5 4 6 8 9
11 8 3 6 14 17 8 13 9 6 8 3 4 5 4 10 18 21 22 32 35 35 34 33 32 31 32 29 28 27 25 23 20 16 13 10 8 6 4 1 4 6 8 10
19 4 10 13 2 11 21 14 20 6 6 6 3 7 4 4 12 21 24 29 31 33 33 33 34 32 31 30 28 27 26 23 20 17 14 10 7 5 2 3 5 7 10 13
11 5 3 2 5 4 9 18 17 18 1 12 6 6 1 3 7 18 22 28 31 32 32 32 33 36 36 34 32 28 27 25 22 18 14 11 8 5 3 4 7 10 12 15
17 5 7 13 2 7 9 17 21 18 9 20 17 12 4 7 10 16 21 26 31 35 37 36 36 38 37 36 35 29 27 26 23 19 16 12 9 5 3 5 9 11 13 15
12 8 12 23 6 3 5 12 21 24 30 15 26 20 12 13 14 21 22 23 30 35 37 41 40 39 38 38 35 31 28 28 25 21 17 13 9 6 4 6 11 13 15 18
5 7 10 18 17 10 8 13 16 26 28 27 27 19 3 17 16 18 23 26 32 36 41 42 39 39 40 41 39 35 34 31 27 24 19 14 11 8 6 8 12 15 17 20
9 8 7 8 5 3 6 25 18 21 25 19 24 21 5 3 7 13 20 26 34 38 42 42 47 47 45 45 44 41 35 31 30 26 22 18 15 11 8 10 15 17 18 21
5 4 3 1 5 7 1 4 18 23 17 18 5 2 6 5 11 12 14 27 30 31 33 38 38 38 43 45 44 37 34 34 30 27 24 22 18 13 10 13 17 18 19 21
2 3 3 3 6 8 3 4 6 9 10 7 13 9 10 8 4 17 22 19 23 27 31 35 39 40 39 46 42 37 35 33 32 29 27 25 19 14 14 16 18 18 19 21
1 3 3 3 4 6 1 3 4 5 7 8 15 12 8 16 8 9 12 18 20 20 23 30 37 39 42 41 38 32 38 36 32 30 29 25 19 17 17 17 18 18 19 22
3 2 10 7 5 4 3 7 6 6 4 1 14 13 18 6 5 5 7 12 13 15 18 22 27 35 36 37 32 37 35 33 30 30 27 23 21 20 19 19 19 19 19 21
9 8 5 4 5 8 8 8 7 0 2 6 10 14 19 15 11 9 10 14 15 17 19 20 24 29 33 31 29 31 31 30 29 28 26 24 23 22 21 21 20 19 20 21
4 4 4 7 3 0 17 2 13 3 5 6 7 8 11 15 13 12 14 15 16 16 17 17 19 22 23 25 26 27 27 26 27 28 27 26 25 24 23 22 21 21 21 22
4 3 2 2 1 2 9 11 9 8 6 8 12 14 17 18 16 16 16 15 15 14 15 15 18 21 23 25 25 24 23 23 27 29 29 28 26 25 24 24 24 23 22 23
2 6 4 2 4 5 8 21 12 15 14 11 12 12 14 17 19 17 15 15 16 16 16 16 19 23 25 26 25 24 24 26 29 30 30 29 28 27 27 27 25 24 24 24
7 5 5 2 6 2 5 18 24 22 18 16 14 14 16 21 18 15 12 13 19 19 18 17 20 26 28 28 27 26 24 26 28 30 31 31 31 29 29 28 26 26 26 26
Wind_Direction
203 216 219 225 224 251 281 283 263 257 154 259 240 252 249 198 211 217 214 210 205 195 199 190 181 161 159 159 159 163 161 152 151 151 150 152 146 141 143 137 139 131 116 109
183 229 238 243 270 239 247 259 258 260 233 243 265 263 256 218 218 221 220 214 203 188 173 171 164 161 155 158 158 157 152 150 146 147 147 150 150 159 149 130 120 109 102 92
225 232 220 223 229 226 236 243 254 260 266 243 274 269 255 239 214 221 223 212 198 188 174 164 158 161 157 151 150 150 150 151 153 154 156 155 141 131 123 118 113 105 96 83
248 249 207 204 227 216 246 236 248 262 258 262 171 286 281 199 210 216 208 197 189 180 170 162 158 158 162 159 158 159 158 155 150 142 141 141 136 130 122 116 104 96 83 66
224 190 200 218 218 201 249 85 220 238 255 274 256 264 276 170 215 211 201 193 186 180 169 159 155 160 159 158 158 157 154 149 145 144 142 140 134 126 120 112 101 82 64 49
266 5 222 224 125 196 129 111 110 235 260 256 240 234 265 205 230 200 190 188 177 171 165 157 157 155 152 149 148 147 146 143 141 140 136 134 128 120 111 100 88 74 57 41
231 228 195 181 145 152 199 179 232 238 209 255 235 221 251 180 185 190 182 183 178 171 166 163 160 157 153 152 151 150 149 144 145 145 140 134 126 118 111 105 88 65 37 19
218 232 201 195 215 201 201 196 198 237 215 249 67 232 235 42 105 176 180 180 177 173 171 169 165 162 161 158 157 157 158 154 150 148 143 137 132 129 121 104 78 47 21 10
214 239 259 182 218 212 190 222 231 18 180 283 219 241 197 164 168 168 170 175 180 177 176 173 171 170 166 164 164 166 162 158 155 153 148 142 135 124 107 79 44 21 9 353
265 266 177 166 184 239 208 156 166 196 215 233 244 251 232 204 192 180 179 182 181 180 178 178 178 176 174 174 172 170 170 168 164 160 153 143 133 122 101 71 36 349 332 329
230 243 132 153 205 187 179 202 217 207 227 248 273 239 141 204 190 187 187 186 183 181 181 180 182 182 182 180 178 177 176 172 168 163 156 153 147 138 129 29 334 326 321 322
212 223 226 212 118 248 219 209 205 206 188 231 288 257 122 97 178 186 189 186 186 185 183 183 186 186 185 186 183 181 180 177 173 170 170 167 166 171 213 305 318 321 322 329
168 202 182 237 229 211 225 219 222 227 326 224 200 247 93 143 173 183 185 186 187 185 183 184 187 191 192 190 190 186 185 184 182 180 179 180 188 199 264 306 326 332 329 329
165 186 225 227 157 147 202 207 209 214 225 238 234 245 195 207 183 178 185 186 186 187 187 188 192 195 196 193 193 189 187 191 189 189 190 194 201 220 268 312 327 323 321 323
176 220 210 246 252 80 277 228 208 210 226 216 247 235 224 203 195 192 184 183 187 191 192 195 195 195 194 193 194 190 191 195 195 197 198 204 210 227 255 310 323 320 321 322
191 226 218 244 245 227 233 247 230 221 230 233 244 248 54 187 189 174 181 186 193 196 200 199 197 195 195 195 194 194 198 199 201 203 206 213 217 225 258 304 318 314 315 320
180 205 186 239 210 149 251 229 228 230 227 233 235 242 119 119 174 199 189 194 200 203 204 201 200 200 198 196 199 200 201 203 206 207 213 219 223 228 260 296 310 307 312 318
177 191 182 184 131 223 297 8 236 224 237 228 245 156 145 147 204 229 227 215 215 213 209 206 202 199 198 200 204 204 205 208 209 214 218 223 224 234 262 288 300 302 309 313
291 179 169 210 211 321 252 191 163 182 243 207 223 206 155 165 197 258 248 233 236 237 229 216 205 199 193 202 205 204 211 212 214 215 222 225 228 242 263 280 291 295 304 311
235 313 226 167 214 227 340 141 145 95 273 206 199 221 172 148 210 238 222 225 221 220 217 205 203 199 205 209 204 214 214 213 214 220 224 228 234 248 262 274 283 290 300 309
170 201 221 211 225 248 202 144 153 149 272 108 189 168 151 194 215 182 193 202 208 208 204 203 209 210 210 204 214 214 211 214 219 222 226 231 240 251 260 271 276 286 296 305
176 173 199 215 230 252 136 107 184 360 77 146 161 184 196 198 196 190 190 192 188 183 183 189 193 198 203 210 209 207 211 216 220 225 229 236 244 251 259 264 270 282 293 303
209 212 192 208 212 83 189 113 203 162 143 162 172 194 207 205 200 193 184 179 180 184 188 190 195 198 198 199 202 205 210 217 225 231 234 239 243 249 256 262 269 277 286 296
227 161 237 218 127 279 222 224 209 194 201 208 215 222 218 206 188 173 168 171 180 187 194 201 203 204 204 202 203 210 221 230 233 235 236 239 243 251 257 260 264 273 283 292
85 154 154 296 265 288 266 224 219 223 229 232 236 231 219 198 182 179 188 196 198 200 205 213 217 216 214 211 214 221 230 233 235 236 237 239 244 250 256 258 263 272 281 289
180 163 188 209 191 203 230 229 227 230 234 234 228 216 207 194 193 194 203 220 216 209 209 216 227 226 224 223 226 231 237 237 238 238 238 242 246 251 256 260 263 270 278 286